Yankton, SD

10:08 AM CST on November 18, 2019 (GMT -0600)
Gurney Municipal

Weather History for KYKN - October, 2019

Change the Weather History Date:

Monday, October 21, 2019

  Actual Average Record
Temperature  
Mean Temperature 46 °F -  
Max Temperature 51 °F 62 °F 85 °F (1978)
Min Temperature 41 °F 34 °F 16 °F (1989)
Degree Days  
Heating Degree Days 19    
Moisture  
Dew Point 44 °F    
Average Humidity 94    
Maximum Humidity 100    
Minimum Humidity 76    
Precipitation  
Precipitation 0.18 in - - ()
Sea Level Pressure  
Sea Level Pressure 29.48 in    
Wind  
Wind Speed 14 mph (NW)    
Max Wind Speed 36 mph    
Max Gust Speed 51 mph    
Visibility 9 miles    
Events Rain    
Averages and records for this station are not official NWS values.
T = Trace of Precipitation, MM = Missing Value Source: NWS Daily Summary

Daily Weather History Graph

Daily Weather History Graph

Search for Another Location

Airport or City:

Astronomy

Oct. 21, 2019 Rise Set
Actual Time 7:49 AM CDT 6:37 PM CDT
Civil Twilight 7:21 AM CDT 7:06 PM CDT
Nautical Twilight 6:48 AM CDT 7:39 PM CDT
Astronomical Twilight 6:15 AM CDT 8:12 PM CDT
Moon No Moon Rise 3:14 PM CDT (10/21)
Length of Visible Light 11h 45m
Length of Day
10h 47m
Waning Gibbous, 48% of the Moon is Illuminated
Oct 21
Waning Gibbous
Oct 27
New
Nov 4
First Quarter
Nov 12
Full
Nov 19
Last Quarter

Hourly Weather History & Observations

Time (CDT) Temp. Windchill Dew Point Humidity Pressure Visibility Wind Dir Wind Speed Gust Speed Precip Events Conditions
12:56 AM 45.0 °F 40.6 °F 43.0 °F 93% 29.49 in 10.0 mi ENE 8.1 mph - N/A   Clear
1:56 AM 45.0 °F 41.2 °F 43.0 °F 93% 29.47 in 10.0 mi East 6.9 mph - N/A   Clear
2:56 AM 43.0 °F 39.5 °F 42.1 °F 97% 29.45 in 10.0 mi ENE 5.8 mph - N/A   Clear
3:56 AM 43.0 °F 39.5 °F 42.1 °F 97% 29.43 in 6.0 mi East 5.8 mph - N/A   Scattered Clouds
4:56 AM 42.1 °F - 42.1 °F 100% 29.43 in 10.0 mi Calm Calm - N/A   Overcast
5:56 AM 41.0 °F 38.0 °F 41.0 °F 100% 29.43 in 9.0 mi NNW 4.6 mph - N/A   Overcast
6:48 AM 42.8 °F 41.1 °F 42.8 °F 100% 29.37 in 6.0 mi NW 3.5 mph - N/A   Overcast
6:56 AM 42.1 °F 38.4 °F 41.0 °F 96% 29.41 in 7.0 mi WNW 5.8 mph - N/A   Overcast
7:56 AM 42.1 °F 37.1 °F 41.0 °F 96% 29.39 in 10.0 mi West 8.1 mph - N/A   Clear
8:15 AM 42.8 °F 37.5 °F 41.0 °F 93% 29.35 in 10.0 mi West 9.2 mph - N/A   Mostly Cloudy
8:36 AM 44.6 °F 39.2 °F 42.8 °F 93% 29.36 in 8.0 mi WNW 10.4 mph - N/A   Overcast
8:47 AM 44.6 °F 38.8 °F 44.6 °F 100% 29.36 in 10.0 mi WNW 11.5 mph - N/A   Overcast
8:56 AM 45.0 °F 39.7 °F 45.0 °F 100% 29.42 in 10.0 mi NW 10.4 mph - N/A   Overcast
9:04 AM 46.4 °F 41.5 °F 44.6 °F 93% 29.37 in 10.0 mi NW 10.4 mph - N/A   Overcast
9:56 AM 48.0 °F - 46.9 °F 96% 29.43 in 10.0 mi NW 13.8 mph - N/A   Overcast
10:56 AM 48.9 °F - 46.9 °F 93% 29.42 in 10.0 mi NW 18.4 mph 23.0 mph N/A   Overcast
11:26 AM 50.0 °F - 46.4 °F 87% 29.38 in 10.0 mi NW 16.1 mph - N/A   Overcast
11:56 AM 51.1 °F - 48.0 °F 89% 29.42 in 10.0 mi WNW 21.9 mph 27.6 mph N/A   Overcast
12:13 PM 51.8 °F - 44.6 °F 76% 29.38 in 10.0 mi WNW 25.3 mph 33.4 mph N/A   Overcast
12:56 PM 48.9 °F - 44.1 °F 83% 29.43 in 10.0 mi WNW 27.6 mph 34.5 mph N/A   Overcast
1:19 PM 48.2 °F - 44.6 °F 87% 29.39 in 5.0 mi WNW 21.9 mph 34.5 mph 0.00 in Rain Light Rain
1:54 PM 46.4 °F 37.5 °F 44.6 °F 93% 29.41 in 3.0 mi WNW 27.6 mph 34.5 mph 0.00 in Rain Light Rain
1:56 PM 46.0 °F 37.4 °F 45.0 °F 96% 29.46 in 3.0 mi WNW 25.3 mph 34.5 mph 0.00 in Rain Light Rain
2:56 PM - - - N/A% 29.44 in 9.0 mi NW 28.8 mph 36.8 mph 0.00 in Rain Light Rain
3:18 PM - - - N/A% 29.46 in 10.0 mi NW 20.7 mph - 0.02 in Rain Light Rain
3:40 PM - - - N/A% 29.47 in 8.0 mi NW 21.9 mph 29.9 mph 0.05 in Rain Rain
3:56 PM - - - N/A% 29.48 in 8.0 mi NW 29.9 mph 35.7 mph 0.07 in Rain Light Rain
4:19 PM - - - N/A% 29.51 in 10.0 mi NW 31.1 mph 41.4 mph 0.02 in Rain Light Rain
4:52 PM - - - N/A% 29.52 in 9.0 mi WNW 23.0 mph 28.8 mph 0.06 in Rain Rain
4:56 PM - - - N/A% 29.53 in 6.0 mi WNW 27.6 mph 31.1 mph 0.07 in Rain Light Rain
5:56 PM - - - N/A% 29.57 in 6.0 mi WNW 33.4 mph 44.9 mph 0.04 in Rain Light Rain
6:30 PM - - - N/A% 29.59 in 10.0 mi WNW 34.5 mph 42.6 mph 0.00 in   Overcast
6:56 PM - - - N/A% 29.60 in 10.0 mi WNW 35.7 mph 48.3 mph 0.00 in   Overcast
7:56 PM - - - N/A% 29.65 in 10.0 mi WNW 31.1 mph 50.6 mph N/A   Overcast
8:56 PM - - - N/A% 29.68 in 10.0 mi WNW 29.9 mph 43.7 mph 0.00 in Rain Light Rain
9:56 PM - - - N/A% 29.69 in 10.0 mi WNW 29.9 mph 39.1 mph 0.00 in   Overcast
10:56 PM - - - N/A% 29.72 in 10.0 mi NW 29.9 mph 40.3 mph N/A   Overcast
11:56 PM - - - N/A% 29.74 in 10.0 mi WNW 33.4 mph 43.7 mph N/A   Overcast